Location: C.E.K. Mees Observatory
(42.7003°N, 77.4088°W)
Time: 11:00:37
(UTC-04:00)

Vanguard 3 - Pass Details

Date: 28 June 2018
Orbit: 508 x 3264 km, 33.3° (Epoch: 23 September)

Event Time Altitude Azimuth Distance (km) Brightness Sun altitude
Rises 03:43:40 0° 247° (WSW) 2,746 - -15.4°
Reaches altitude 10° 03:45:47 10° 235° (SW) 1,989 - -15.2°
Exits shadow 03:47:55 24° 210° (SSW) 1,437 7.8 -15.0°
Maximum altitude 03:49:44 31° 172° (S) 1,349 7.9 -14.8°
Drops below altitude 10° 03:55:35 10° 113° (ESE) 2,989 10.2 -14.1°
Sets 03:59:30 0° 104° (ESE) 4,425 11.3 -13.7°
